When you browse on this site, cookies collect data to enhance your experience and personalize the content and advertising you see.
Visit our Privacy Policy to learn more. By continuing to use the site, you agree to this use of cookies and data.
  • In Portugal
  • List of Countries
  • For 7 days
  • Water Temperature
  • Weather Map
  • Weather Widgets
  • user-avatar
    Login

    Hourly Weather Mieres

    Today, 22 August, Thursday

    Time Temperature Precipitation Wind Pressure Humidity
    00:00 +14°C° 0 mm 1 mps 720 mmHg 82%
    01:00 +14°C° 0 mm 1 mps 720 mmHg 80%
    02:00 +14°C° 0 mm 1 mps 720 mmHg 79%
    03:00 +14°C° 0 mm 1 mps 720 mmHg 77%
    04:00 +14°C° 0 mm 1 mps 720 mmHg 77%
    05:00 +14°C° 0 mm 1 mps 720 mmHg 76%
    06:00 +14°C° 0 mm 1 mps 720 mmHg 76%
    07:00 +18°C° 0 mm 1 mps 720 mmHg 67%
    08:00 +21°C° 0 mm 1 mps 721 mmHg 57%
    09:00 +24°C° 0 mm 1 mps 721 mmHg 48%
    10:00 +25°C° 0 mm 1 mps 721 mmHg 45%
    11:00 +26°C° 0 mm 2 mps 721 mmHg 42%
    12:00 +27°C° 0 mm 2 mps 720 mmHg 38%
    13:00 +28°C° 0 mm 2 mps 720 mmHg 38%
    14:00 +28°C° 0 mm 2 mps 720 mmHg 38%
    15:00 +28°C° 0 mm 2 mps 720 mmHg 39%
    16:00 +27°C° 0 mm 2 mps 719 mmHg 46%
    17:00 +26°C° 0 mm 1 mps 719 mmHg 53%
    18:00 +24°C° 0 mm 1 mps 719 mmHg 61%
    19:00 +22°C° 0 mm 1 mps 719 mmHg 65%
    20:00 +21°C° 0 mm 1 mps 719 mmHg 70%
    21:00 +19°C° 0 mm 1 mps 719 mmHg 74%
    22:00 +19°C° 0 mm 1 mps 719 mmHg 69%
    23:00 +18°C° 0 mm 1 mps 719 mmHg 64%

    Tomorrow, 23 August, Friday

    Time Temperature Precipitation Wind Pressure Humidity
    00:00 +18°C° 0 mm 1 mps 719 mmHg 60%
    01:00 +18°C° 0 mm 1 mps 718 mmHg 55%
    02:00 +18°C° 0 mm 1 mps 718 mmHg 51%
    03:00 +18°C° 0 mm 1 mps 718 mmHg 46%
    04:00 +17°C° 0 mm 2 mps 718 mmHg 44%
    05:00 +18°C° 0 mm 2 mps 718 mmHg 42%
    06:00 +18°C° 0 mm 2 mps 717 mmHg 40%
    07:00 +22°C° 0 mm 1 mps 718 mmHg 36%
    08:00 +26°C° 0 mm 1 mps 718 mmHg 32%
    09:00 +29°C° 0 mm 1 mps 719 mmHg 28%
    10:00 +31°C° 0 mm 1 mps 718 mmHg 26%
    11:00 +32°C° 0 mm 1 mps 718 mmHg 25%
    12:00 +33°C° 0 mm 1 mps 718 mmHg 24%
    13:00 +34°C° 0 mm 2 mps 718 mmHg 24%
    14:00 +34°C° 0 mm 2 mps 718 mmHg 25%
    15:00 +34°C° 0 mm 2 mps 717 mmHg 26%
    16:00 +31°C° 0 mm 2 mps 717 mmHg 32%
    17:00 +30°C° 0 mm 1 mps 717 mmHg 37%
    18:00 +28°C° 0 mm 1 mps 716 mmHg 43%
    19:00 +26°C° 0 mm 1 mps 717 mmHg 47%
    20:00 +24°C° 0 mm 1 mps 717 mmHg 51%
    21:00 +22°C° 0 mm 1 mps 717 mmHg 54%
    22:00 +22°C° 0 mm 1 mps 717 mmHg 54%
    23:00 +21°C° 0 mm 1 mps 717 mmHg 53%

    Day after tomorrow, 24 August, Saturday

    Time Temperature Precipitation Wind Pressure Humidity
    00:00 +21°C° 0 mm 1 mps 717 mmHg 52%
    01:00 +21°C° 0 mm 1 mps 716 mmHg 51%
    02:00 +21°C° 0 mm 1 mps 716 mmHg 49%
    03:00 +20°C° 0 mm 2 mps 716 mmHg 47%
    04:00 +21°C° 0 mm 1 mps 716 mmHg 48%
    05:00 +20°C° 0 mm 1 mps 716 mmHg 49%
    06:00 +20°C° 0 mm 1 mps 716 mmHg 49%
    07:00 +22°C° 0 mm 1 mps 716 mmHg 47%
    08:00 +24°C° 0 mm 1 mps 716 mmHg 45%
    09:00 +27°C° 0 mm 1 mps 717 mmHg 43%
    10:00 +28°C° 0 mm 2 mps 717 mmHg 43%
    11:00 +28°C° 0 mm 2 mps 717 mmHg 43%
    12:00 +29°C° 0 mm 2 mps 717 mmHg 43%
    13:00 +28°C° 0 mm 2 mps 717 mmHg 47%
    14:00 +28°C° 0 mm 2 mps 716 mmHg 50%
    15:00 +27°C° 0 mm 2 mps 716 mmHg 54%
    16:00 +25°C° 0 mm 2 mps 716 mmHg 61%
    17:00 +24°C° 0 mm 2 mps 716 mmHg 68%
    18:00 +21°C° 0 mm 2 mps 716 mmHg 75%
    19:00 +21°C° 0 mm 1 mps 716 mmHg 81%
    20:00 +19°C° 0 mm 1 mps 716 mmHg 87%
    21:00 +18°C° 0 mm 1 mps 717 mmHg 93%
    22:00 +15°C° 0.1 mm 0 mps 717 mmHg 93%
    23:00 +15°C° 0.1 mm 0 mps 716 mmHg 92%

    25 August, Sunday

    Time Temperature Precipitation Wind Pressure Humidity
    00:00 +15°C° 0.1 mm 0 mps 716 mmHg 91%
    01:00 +15°C° 0.2 mm 0 mps 716 mmHg 91%
    02:00 +15°C° 0.2 mm 0 mps 716 mmHg 91%
    03:00 +15°C° 0.2 mm 0 mps 715 mmHg 91%
    04:00 +15°C° 0.7 mm 0 mps 716 mmHg 93%
    05:00 +15°C° 0.7 mm 0 mps 716 mmHg 94%
    06:00 +15°C° 0.7 mm 0 mps 716 mmHg 95%
    07:00 +16°C° 0.2 mm 1 mps 716 mmHg 93%
    08:00 +18°C° 0.2 mm 1 mps 716 mmHg 90%
    09:00 +19°C° 0.2 mm 1 mps 716 mmHg 88%
    10:00 +20°C° 0.1 mm 1 mps 716 mmHg 84%
    11:00 +20°C° 0.1 mm 1 mps 716 mmHg 79%
    12:00 +21°C° 0.1 mm 1 mps 716 mmHg 75%
    13:00 +20°C° 0.3 mm 2 mps 716 mmHg 75%
    14:00 +20°C° 0.3 mm 2 mps 716 mmHg 76%
    15:00 +19°C° 0.3 mm 2 mps 716 mmHg 76%
    16:00 +19°C° 1.2 mm 2 mps 716 mmHg 80%
    17:00 +18°C° 1.2 mm 2 mps 716 mmHg 85%
    18:00 +18°C° 1.2 mm 1 mps 716 mmHg 89%
    19:00 +18°C° 0.2 mm 1 mps 717 mmHg 91%
    20:00 +16°C° 0.2 mm 1 mps 717 mmHg 94%
    21:00 +14°C° 0.2 mm 0 mps 718 mmHg 96%
    22:00 +15°C° 0 mm 1 mps 717 mmHg 96%
    23:00 +15°C° 0 mm 1 mps 717 mmHg 96%

    26 August, Monday

    Time Temperature Precipitation Wind Pressure Humidity
    00:00 +14°C° 0 mm 1 mps 717 mmHg 96%
    01:00 +14°C° 0 mm 1 mps 717 mmHg 96%
    02:00 +14°C° 0 mm 1 mps 716 mmHg 95%
    03:00 +14°C° 0 mm 1 mps 716 mmHg 95%
    04:00 +14°C° 0.1 mm 1 mps 716 mmHg 95%
    05:00 +14°C° 0.1 mm 1 mps 716 mmHg 95%
    06:00 +14°C° 0.1 mm 1 mps 717 mmHg 95%
    07:00 +16°C° 0 mm 1 mps 717 mmHg 91%
    08:00 +18°C° 0 mm 1 mps 717 mmHg 87%
    09:00 +19°C° 0 mm 1 mps 717 mmHg 83%
    10:00 +21°C° 0 mm 1 mps 717 mmHg 77%
    11:00 +22°C° 0 mm 1 mps 717 mmHg 70%
    12:00 +24°C° 0 mm 1 mps 717 mmHg 64%
    13:00 +24°C° 0.1 mm 2 mps 717 mmHg 64%
    14:00 +24°C° 0.1 mm 2 mps 716 mmHg 63%
    15:00 +25°C° 0.1 mm 2 mps 716 mmHg 62%
    16:00 +24°C° 0.3 mm 2 mps 716 mmHg 69%
    17:00 +23°C° 0.3 mm 2 mps 716 mmHg 76%
    18:00 +20°C° 0.3 mm 2 mps 716 mmHg 82%
    19:00 +21°C° 0.2 mm 1 mps 716 mmHg 85%
    20:00 +20°C° 0.2 mm 1 mps 716 mmHg 88%
    21:00 +19°C° 0.2 mm 1 mps 717 mmHg 91%
    22:00 +18°C° 0 mm 1 mps 716 mmHg 91%
    23:00 +18°C° 0 mm 1 mps 716 mmHg 91%

    27 August, Tuesday

    Time Temperature Precipitation Wind Pressure Humidity
    00:00 +16°C° 0 mm 1 mps 716 mmHg 91%
    01:00 +16°C° 0 mm 1 mps 715 mmHg 89%
    02:00 +16°C° 0 mm 1 mps 715 mmHg 87%
    03:00 +16°C° 0 mm 1 mps 714 mmHg 85%
    04:00 +16°C° 0 mm 1 mps 714 mmHg 83%
    05:00 +16°C° 0 mm 1 mps 714 mmHg 82%
    06:00 +16°C° 0 mm 1 mps 714 mmHg 80%
    07:00 +20°C° 0 mm 1 mps 714 mmHg 72%
    08:00 +22°C° 0 mm 1 mps 715 mmHg 64%
    09:00 +25°C° 0 mm 1 mps 715 mmHg 56%
    10:00 +26°C° 0 mm 1 mps 715 mmHg 52%
    11:00 +27°C° 0 mm 1 mps 715 mmHg 49%
    12:00 +29°C° 0 mm 2 mps 714 mmHg 45%
    13:00 +29°C° 0 mm 2 mps 714 mmHg 47%
    14:00 +28°C° 0 mm 2 mps 713 mmHg 49%
    15:00 +28°C° 0 mm 2 mps 713 mmHg 51%
    16:00 +27°C° 0.5 mm 2 mps 713 mmHg 59%
    17:00 +25°C° 0.5 mm 1 mps 713 mmHg 67%
    18:00 +24°C° 0.5 mm 1 mps 713 mmHg 75%
    19:00 +22°C° 0 mm 1 mps 713 mmHg 78%
    20:00 +21°C° 0 mm 1 mps 713 mmHg 81%
    21:00 +20°C° 0 mm 1 mps 713 mmHg 84%
    22:00 +19°C° 0 mm 1 mps 713 mmHg 82%
    23:00 +19°C° 0 mm 1 mps 713 mmHg 81%
    Show more